Regional Weather Roundup
Issued by NWS San Diego, CA

Home | Current Version | Previous Version | Text Only | Print | Product List | Glossary On
Versions: 1 2 3 4 5 6 7 8 9 10 11 12 13 14 15 16 17 18 19 20 21 22 23 24 25 26 27 28 29 30 31 32 33 34 35 36 37 38 39 40 41 42 43 44 45 46 47 48 49 50
000
ASUS46 KSGX 031111
RWRSGX

SAN DIEGO HOURLY WEATHER ROUNDUP
NATIONAL WEATHER SERVICE SAN DIEGO CA
400 AM PDT THU SEP 03 2015

NOTE: "FAIR" INDICATES FEW OR NO CLOUDS BELOW 12,000 FEET WITH NO
SIGNIFICANT WEATHER AND/OR OBSTRUCTIONS TO VISIBILITY.

CAZ042-043-060-061-PZZ750-775-031200-

GREATER SAN DIEGO AREA

CITY           SKY/WX    TMP DP  RH WIND       PRES   REMARKS
LINDBERGH FLD  MOCLDY    69  59  70 CALM      29.92F
POINT LOMA       N/A     65  58  78 NW1         N/A
NATIONAL CITY    N/A     68  61  78 CALM      29.92S
CHULA VISTA      N/A     65  60  86 CALM      29.84F
IMPERIAL BEACH CLOUDY   N/A N/A N/A CALM      29.92S
BROWN FIELD    CLOUDY    64  58  80 E3        29.92S
MIRAMAR MCAS   CLOUDY    66  56  70 E3        29.91F
MONTGOMERY FLD CLOUDY    66  58  75 CALM      29.92S

$$

NORTH SAN DIEGO COUNTY

CITY           SKY/WX    TMP DP  RH WIND       PRES   REMARKS
CAMP PENDLETON CLOUDY    64  56  75 NE5       29.91F
OCEANSIDE AP   CLOUDY    67  58  72 N3        29.90F
OCEANSIDE HBR    N/A     67  62  83 NE3       29.93S
VISTA            N/A     64  59  83 CALM      29.90S
CARLSBAD       CLOUDY    66  59  78 NE3       29.91S
DEL MAR          N/A     65  61  85 CALM      29.93F
FALLBROOK        N/A     64  63  97 CALM      29.92S
ESCONDIDO        N/A     63  57  81 CALM      29.93F
SAN MARCOS       N/A     61  57  86 CALM      29.89F
POWAY            N/A     58  55  87 CALM      29.92F

$$

EAST SAN DIEGO COUNTY

CITY           SKY/WX    TMP DP  RH WIND       PRES   REMARKS
RAMONA         CLOUDY    58  55  90 NE3       29.93F
SANTEE LAKES     N/A     59  56  89 CALM      29.91S
LA MESA          N/A     62  58  88 CALM      29.85F
JAMUL            N/A     58  56  91 CALM      29.91S
DESCANSO N       N/A     56  21  25 E6        29.77F
CAMPO            N/A     49  37  63 NE7       29.93F

$$

ORANGE COUNTY AND THE LOS ANGELES BASIN

CITY           SKY/WX    TMP DP  RH WIND       PRES   REMARKS
JOHN WAYNE AP  CLOUDY    67  58  72 SE5       29.91S
LAKE FOREST FR   N/A     63  56  78 CALM      29.80F
SANTA ANA        N/A     67  59  74 CALM      29.86F
HUNTINGTON BCH   N/A     67  62  82 S1        29.93S
LOS ALAMITOS   CLOUDY    68  60  75 E7        29.91S
FULLERTON      PTCLDY    68  59  73 VRB5      29.91S
L.A. AP        CLOUDY    68  60  75 CALM      29.91F
L.A. DOWNTOWN  CLOUDY    68  59  73 CALM      29.90F

$$

THE INLAND EMPIRE

CITY           SKY/WX    TMP DP  RH WIND       PRES   REMARKS
CORONA         CLEAR     57  55  93 CALM      29.93S
CHINO          CLEAR     61  57  87 CALM      29.93F
ONTARIO        PTCLDY    62  58  86 W3        29.92F
RIVERSIDE AP   CLEAR     63  58  83 CALM      29.92F
MORENO VALLEY    N/A     60  59  96 CALM      29.89F
MARCH ARB      CLEAR     60  58  94 CALM      29.93F
HORSETHIEF CYN   N/A     58  51  77 S1        29.93S
PERRIS           N/A     60  59  94 SE1       29.95S
MENIFEE          N/A     61  59  93 CALM      29.98F
HEMET EAST       N/A     60  52  76 CALM      29.93S
FRENCH VALLEY  FAIR      59  55  88 CALM      29.94S
TEMECULA         N/A     60  58  92 CALM      29.89F

$$

SAN BERNARDINO AND RIVERSIDE COUNTY MOUNTAINS

CITY           SKY/WX    TMP DP  RH WIND       PRES   REMARKS
BIG BEAR AP    PTCLDY    52  27  37 CALM      30.14S
ANGELUS OAKS     N/A     54  32  43 CALM      29.77S
PINE COVE        N/A     60  27  28 CALM      29.81S

$$

SOUTHERN DESERT INCLUDING THE COACHELLA VALLEY

CITY           SKY/WX    TMP DP  RH WIND       PRES   REMARKS
PALM SPRINGS   MOCLDY    80  50  34 E3        29.78S
THOUSAND PALMS   N/A     82  46  28 N9        29.74R
PALM DESERT      N/A     76  53  44 CALM        N/A
THERMAL        PTCLDY    78  49  35 CALM      29.73R
BLYTHE         PTCLDY    81  50  33 S9        29.77S
IMPERIAL AP    CLEAR     82  38  20 W7        29.75R
EL CENTRO NAS  CLEAR     82  34  17 W9        29.77R

$$

UPPER DESERT

CITY           SKY/WX    TMP DP  RH WIND       PRES   REMARKS
VICTORVILLE AP CLEAR     61  43  51 CALM      29.95S
HESPERIA         N/A     67  43  42 W3        29.91S
APPLE VALLEY     N/A     67  43  40 NW3G18    30.00R
PALMDALE       PTCLDY    62  49  62 SW7       29.93S
LANCASTER      PTCLDY    67  36  31 W12       29.92S
EDWARDS AFB    PTCLDY    62  36  37 S8        29.89S
DAGGETT        CLEAR     68  31  25 W13       29.89S
29 PALMS N     PTCLDY    75  36  24 W5        29.92S
NEEDLES        MOCLDY    87  44  22 CALM      29.79R

$$

REGIONAL REPORTS

CITY           SKY/WX    TMP DP  RH WIND       PRES   REMARKS
SANTA BARBARA  MOCLDY    65  57  75 CALM      29.90S
SANDBERG       MOCLDY    58  35  42 SW6       30.03S
LAS VEGAS NV   MOCLDY    83  42  23 S6        29.80S
PHOENIX AZ     PTCLDY    85  56  37 E5        29.83R
TIJUANA        CLOUDY    64  55  72 N3        29.94F
ENSENADA NW      N/A     67  32  26 N3        29.89S

$$

OFFSHORE ISLANDS

CITY           SKY/WX    TMP DP  RH WIND       PRES   REMARKS
CATALINA ARPT  CLOUDY    59  54  83 SW5       29.94F
SAN NICOLAS IS CLOUDY   N/A N/A N/A W9        29.91S

$$

MARINE AND OFFSHORE BUOY REPORTS

STATION/POSITION SKY/WX   TEMP    WIND        PRES    SWELL
                          AIR SEA DIR/SP/G            HT/PER/DIR
                          (F)     (DEG/KT/KT) (MB)    (FT/S/D)
TANNER BANKS               67 68  310/ 10/ 12 1013.1R   5/290/11
S CLEMENTE BASIN           67 71  250/  6/  8 1012.7F   3/210/12
SO. S. ROSA ISLA           65 67  330/ 14/ 16 1011.8F   5/11
W. S. BARBARA CH           64 66  330/ 16/ 17 1012.1R   7/280/11
M. S. BARBARA CH           67 71  210/  8/ 10 1012.9R
S. MONICA BASIN            65 70  160/  2/  4 1012.8F   3/230/13
S PEDRO CHANNEL               72                N/A     2/240/13
DANA POINT                    74                N/A     2/200/13
OCEANSIDE OFFSHR              74                N/A     2/220/11
TORREY PINES OTR              74                N/A     2/230/11
LA JOLLA 1                 68 70  100/  4/  4 1012.8F
MISSION BAY BUOY              74                N/A     2/210/13
SAN DIEGO BAY                 77              1013.5F
POINT LOMA SOUTH              73                N/A     2/220/13

$$




USA.gov is the U.S. government's official web portal to all federal, state and local government web resources and services.